Location: Unspecified
(45.3976°N, 0.0000°E)
Time: 21:57:23
(UTC+00:00)

SL-16 DEB - Visible Passes

Search period start: 04 April 2026 00:00
Search period end: 14 April 2026 00:00
Orbit: 792 x 988 km, 71.0° (Epoch: 28 March)

Date Brightness Start Highest point End Pass type
(mag) Time Alt. Az. Time Alt. Az. Time Alt. Az.
4 Apr ? 04:46:50 10° NNE 04:48:57 12° NE 04:51:02 10° NE visible
4 Apr ? 19:56:03 11° ENE 19:56:03 11° ENE 19:56:43 10° ENE visible
4 Apr ? 21:38:46 69° NE 21:38:46 69° NE 21:44:12 10° NNE visible
4 Apr ? 23:21:30 19° WNW 23:23:48 23° NW 23:28:36 10° N visible
5 Apr ? 04:45:59 10° N 04:48:51 14° NE 04:51:40 10° ENE visible
5 Apr ? 19:53:58 17° E 19:53:58 17° E 19:57:05 10° ENE visible
5 Apr ? 21:36:39 66° SW 21:37:37 86° WNW 21:43:49 10° NNE visible
5 Apr ? 23:19:18 11° W 23:23:38 20° NW 23:28:01 10° N visible
6 Apr ? 04:45:17 10° N 04:48:44 16° NE 04:52:06 10° ENE visible
6 Apr ? 19:50:46 18° SE 19:52:44 21° E 19:57:12 10° NE visible
6 Apr ? 21:33:17 24° SW 21:37:16 72° WNW 21:43:26 10° NNE visible
6 Apr ? 23:19:30 10° W 23:23:29 17° NW 23:27:24 10° N visible
7 Apr ? 04:44:39 10° N 04:48:35 18° NE 04:52:23 10° E visible
7 Apr ? 19:47:10 10° SSE 19:52:14 26° ESE 19:57:10 10° NE visible
7 Apr ? 21:30:40 10° SW 21:36:56 61° WNW 21:43:02 10° NNE visible
7 Apr ? 23:19:58 10° WNW 23:23:21 15° NW 23:26:41 10° N visible
8 Apr ? 04:44:04 10° N 04:48:24 21° NE 04:52:35 10° E visible
8 Apr ? 19:46:17 10° SSE 19:51:44 31° ESE 19:57:03 10° NE visible
8 Apr ? 21:30:29 10° SW 21:36:38 51° WNW 21:42:35 10° NNE visible
8 Apr ? 23:20:36 10° WNW 23:23:15 13° NW 23:25:52 10° N visible
9 Apr ? 04:43:31 10° N 04:48:12 25° NE 04:52:41 10° ESE visible
9 Apr ? 19:45:30 10° S 19:51:16 38° ESE 19:56:52 10° NE visible
9 Apr ? 21:30:21 10° SW 21:36:20 43° NW 21:42:07 10° NNE visible
9 Apr ? 23:21:34 10° NW 23:23:10 11° NNW 23:24:46 10° NNW visible
10 Apr ? 04:43:00 10° N 04:47:57 29° NE 04:52:43 10° ESE visible
10 Apr ? 19:44:49 10° S 19:50:49 45° ESE 19:56:37 10° NE visible
10 Apr ? 21:30:18 10° WSW 21:36:04 36° NW 21:41:38 10° NNE visible
11 Apr ? 04:42:30 10° NNW 04:47:42 35° NE 04:52:40 10° ESE visible
11 Apr ? 19:44:13 10° S 19:50:22 55° ESE 19:56:20 10° NE visible
11 Apr ? 21:30:19 10° WSW 21:35:48 31° NW 21:41:07 10° N visible
12 Apr ? 04:42:01 10° NNW 04:47:24 41° NE 04:52:33 10° SE visible
12 Apr ? 19:43:41 10° SSW 19:49:57 67° ESE 19:56:00 10° NNE visible
12 Apr ? 21:30:24 10° WSW 21:35:34 26° NW 21:40:35 10° N visible
13 Apr ? 02:58:36 10° NNE 03:00:26 11° NE 03:02:15 10° NE visible
13 Apr ? 04:41:34 10° NNW 04:47:05 50° ENE 04:52:21 10° SE visible
13 Apr ? 19:43:14 10° SSW 19:49:33 80° ESE 19:55:39 10° NNE visible
13 Apr ? 21:30:33 10° W 21:35:21 23° NW 21:40:00 10° N visible
